Weather in Pervomaysk

Russia / Krasnoyarsk Krai     58°00′57″N   94°05′41″E
temp.,
°C
wind,
m/s
gust,
m/s
humid.,
%
clouds,
%
prec.,
mm/h
press.,
hPa
HPBL,
m
12 may, wed
wed1201:00+5ene26825 0.0 1020146
04:00+4ene38774 0.0 1020193
07:00+6e36593 0.0 1021367
10:00+11e33390 0.0 10201145
13:00+14ene22305 0.0 10191993
16:00+15ene22273 0.0 10172206
19:00+13se23355 0.0 1017206
22:00+7sse115014 0.0 101710
13 may, thu
thu1301:00+5se11565 0.0 101710
04:00+3se11635 0.0 101710
07:00+7sse125280 0.0 1018170
10:00+14s23345 0.0 10171026
13:00+16s333069 0.0 10152332
16:00+17ssw332869 0.0 10142526
19:00+16s25355 0.0 1013371
22:00+8sse312575 0.0 1013290
14 may, fri
fri1401:00+6sse25605 0.0 1012104
04:00+5se116475 0.0 101111
07:00+8s2453100 0.0 1010231
10:00+13ssw3543100 0.0 1008902
13:00+7nw4985100 0.8 1010647
16:00+9wnw5773100 0.1 10101214
19:00+7wnw486767 0.1 10131226
22:00+3wnw4117228 0.0 1016739
15 may, sat
sat1501:00+2w411805 0.0 1017457
04:00+1sw31086100 0.0 1016291
07:00+5sw31065100 0.0 10161021
10:00+3sw51496100 0.9 1014854
13:00+6wsw41386100 1.8 1013819
16:00+9w2891100 0.2 1011296
19:00+11wnw31296100 0.8 1012565
22:00+9w2298100 0.6 101331
16 may, sun
sun1601:00+10sw4118998 0.9 1012541
04:00+8sw41291100 0.1 1011477
07:00+9sw41293100 5.8 1009550
10:00+9sw31195100 3.7 1008592
13:00+11wsw41196100 6.6 1007705
16:00+12wsw31094100 0.8 1005473
19:00+15wnw41089100 2.3 1003771
22:00+10wnw31095100 0.1 1005608